sat.trackr.live / text

‹ back to catalog

STARLINK-32715

NORAD 62569 · 2025-006R

PAYLOAD ACTIVE UNKNOWN

§ Identity

Operator
Country
US
Launch date
2025-01-10
Launch site
AFETR
Launch vehicle
Mass (kg)
RCS (m²)

Purposes: comms

External: N2YO · Heavens-Above · Gunter

§ Orbital elements

Epoch: 2026-09-21T06:54:10.266912Z

Period
94.27 min
Inclination
43.0027°
Eccentricity
0.0001832
Mean motion
15.27588920 rev/d
Perigee alt
481.8 km
Apogee alt
484.3 km
Semi-major
6,861.2 km
B*
3.2402e-4
RAAN
268.2193°
Arg perigee
280.4912°
Mean anomaly
79.5734°
Rev number
9,477

§ Raw data

STARLINK-327151 62569U 25006R   26264.28761883  .00008667  00000+0  32402-3 0  99942 62569  43.0027 268.2193 0001832 280.4912  79.5734 15.27588920 94776

JSON: /api/v1/satellites/62569 · /tle

For live sub-satellite position, see the globe view (requires WebGL).

§ Visibility from observer

Set your observer location to see the next 7 days of passes ≥ 10°. The values pass through the URL so the page stays shareable.

No JS? Fill the form by hand. The geolocation button needs JavaScript.